Weather History for KIWD - March, 2013

Change the Weather History Date:

Tuesday, March 5, 2013

  Actual Average Record
Temperature  
Mean Temperature 24 °F -  
Max Temperature 26 °F 26 °F 42 °F (2005)
Min Temperature 21 °F 9 °F -25 °F (2003)
Degree Days  
Heating Degree Days 42    
Moisture  
Dew Point 15 °F    
Average Humidity 72    
Maximum Humidity 86    
Minimum Humidity 58    
Precipitation  
Precipitation 0.00 in - - ()
Sea Level Pressure  
Sea Level Pressure 30.10 in    
Wind  
Wind Speed 10 mph (NE)    
Max Wind Speed 15 mph    
Max Gust Speed 18 mph    
Visibility 10 miles    
Events      
Averages and records for this station are not official NWS values.
T = Trace of Precipitation, MM = Missing Value Source: NWS Daily Summary

Daily Weather History Graph

Daily Weather History Graph

Search for Another Location

Airport or City:

Trip Planner

Search our weather history database for the weather conditions in past years. The results will help you decide how hot, cold, wet, or windy it might be!

Date:

Astronomy

Mar. 05, 2013 Rise Set
Actual Time 6:31 AM CST 5:52 PM CST
Civil Twilight 6:01 AM CST 6:22 PM CST
Nautical Twilight 5:26 AM CST 6:57 PM CST
Astronomical Twilight 4:51 AM CST 7:33 PM CST
Moon 2:00 AM CST (3/5) 11:15 AM CST (3/5)
Length of Visible Light 12h 20m
Length of Day
11h 20m
Last Quarter, 40% of the Moon is Illuminated
Mar 5
Last Quarter
Mar 11
New
Mar 19
First Quarter
Mar 27
Full
Apr 2
Last Quarter

Hourly Weather History & Observations

Time (CST) Temp. Windchill Dew Point Humidity Pressure Visibility Wind Dir Wind Speed Gust Speed Precip Events Conditions
12:15 AM 23.0 °F 12.4 °F 10.4 °F 59% 30.08 in 10.0 mi East 10.4 mph - N/A   Overcast
1:55 AM 21.2 °F 10.9 °F 8.6 °F 58% 30.08 in 10.0 mi East 9.2 mph - N/A   Overcast
3:55 AM 21.2 °F 8.3 °F 10.4 °F 63% 30.03 in 10.0 mi East 13.8 mph - N/A   Overcast
4:15 AM 21.2 °F 8.9 °F 12.2 °F 68% 30.03 in 10.0 mi East 12.7 mph - N/A   Overcast
4:35 AM 21.2 °F 8.3 °F 12.2 °F 68% 30.03 in 10.0 mi East 13.8 mph - N/A   Overcast
4:55 AM 21.2 °F 10.9 °F 12.2 °F 68% 30.04 in 10.0 mi East 9.2 mph - N/A   Overcast
5:15 AM 21.2 °F 8.9 °F 12.2 °F 68% 30.03 in 10.0 mi East 12.7 mph - N/A   Overcast
5:35 AM 21.2 °F 9.5 °F 12.2 °F 68% 30.03 in 10.0 mi East 11.5 mph - N/A   Overcast
5:55 AM 21.2 °F 10.1 °F 12.2 °F 68% 30.03 in 10.0 mi East 10.4 mph - N/A   Overcast
6:15 AM 23.0 °F 11.7 °F 14.0 °F 68% 30.03 in 10.0 mi East 11.5 mph - N/A   Overcast
6:35 AM 21.2 °F 9.5 °F 14.0 °F 74% 30.03 in 10.0 mi East 11.5 mph - N/A   Overcast
7:35 AM 21.2 °F 10.1 °F 12.2 °F 68% 30.05 in 10.0 mi East 10.4 mph - N/A   Overcast
7:55 AM 23.0 °F 11.1 °F 12.2 °F 63% 30.06 in 10.0 mi East 12.7 mph 16.1 mph N/A   Overcast
8:15 AM 23.0 °F 13.1 °F 12.2 °F 63% 30.06 in 10.0 mi East 9.2 mph - N/A   Overcast
8:35 AM 23.0 °F 11.1 °F 14.0 °F 68% 30.07 in 10.0 mi East 12.7 mph - N/A   Overcast
8:55 AM 23.0 °F 11.7 °F 12.2 °F 63% 30.06 in 10.0 mi ENE 11.5 mph - N/A   Overcast
9:15 AM 23.0 °F 10.1 °F 14.0 °F 68% 30.07 in 10.0 mi East 15.0 mph 18.4 mph N/A   Overcast
9:35 AM 24.8 °F 13.4 °F 15.8 °F 69% 30.07 in 10.0 mi East 12.7 mph - N/A   Overcast
9:55 AM 24.8 °F 14.0 °F 15.8 °F 69% 30.08 in 10.0 mi East 11.5 mph - N/A   Overcast
10:15 AM 24.8 °F 12.4 °F 15.8 °F 69% 30.08 in 10.0 mi East 15.0 mph - N/A   Overcast
10:35 AM 24.8 °F 14.6 °F 15.8 °F 69% 30.08 in 10.0 mi East 10.4 mph - N/A   Overcast
10:55 AM 24.8 °F 14.0 °F 15.8 °F 69% 30.08 in 10.0 mi ENE 11.5 mph - N/A   Overcast
11:15 AM 24.8 °F 15.3 °F 15.8 °F 69% 30.09 in 10.0 mi ENE 9.2 mph - N/A   Overcast
11:35 AM 24.8 °F 14.6 °F 15.8 °F 69% 30.09 in 10.0 mi East 10.4 mph - N/A   Overcast
11:55 AM 26.6 °F 18.2 °F 15.8 °F 64% 30.08 in 10.0 mi NE 8.1 mph - N/A   Overcast
12:15 PM 26.6 °F 17.5 °F 15.8 °F 64% 30.08 in 10.0 mi North 9.2 mph - N/A   Overcast
12:35 PM 26.6 °F 17.5 °F 15.8 °F 64% 30.08 in 10.0 mi NNE 9.2 mph - N/A   Overcast
2:15 PM 24.8 °F 14.0 °F 17.6 °F 74% 30.07 in 10.0 mi NNE 11.5 mph 16.1 mph N/A   Overcast
2:35 PM 24.8 °F 14.6 °F 17.6 °F 74% 30.07 in 10.0 mi NE 10.4 mph 17.3 mph N/A   Overcast
2:55 PM 24.8 °F 14.0 °F 15.8 °F 69% 30.07 in 10.0 mi NNE 11.5 mph - N/A   Overcast
3:15 PM 24.8 °F 14.0 °F 17.6 °F 74% 30.08 in 10.0 mi NE 11.5 mph - N/A   Overcast
3:35 PM 24.8 °F 15.3 °F 15.8 °F 69% 30.08 in 7.0 mi NNE 9.2 mph - N/A   Overcast
3:55 PM 24.8 °F 16.9 °F 15.8 °F 69% 30.09 in 10.0 mi NNE 6.9 mph - N/A   Overcast
4:15 PM 24.8 °F 15.3 °F 17.6 °F 74% 30.10 in 5.0 mi North 9.2 mph - N/A   Overcast
4:35 PM 24.8 °F 13.4 °F 17.6 °F 74% 30.10 in 10.0 mi North 12.7 mph - N/A   Overcast
4:55 PM 24.8 °F 16.9 °F 17.6 °F 74% 30.11 in 10.0 mi NNE 6.9 mph 16.1 mph N/A   Overcast
5:15 PM 23.0 °F 13.9 °F 17.6 °F 80% 30.12 in 10.0 mi NNE 8.1 mph - N/A   Overcast
5:35 PM 23.0 °F 13.1 °F 17.6 °F 80% 30.13 in 10.0 mi NNE 9.2 mph - N/A   Overcast
5:55 PM 23.0 °F 14.7 °F 17.6 °F 80% 30.14 in 10.0 mi NNE 6.9 mph - N/A   Overcast
6:15 PM 23.0 °F 14.7 °F 17.6 °F 80% 30.14 in 10.0 mi NE 6.9 mph - N/A   Overcast
6:35 PM 21.2 °F 11.7 °F 17.6 °F 86% 30.14 in 10.0 mi NNE 8.1 mph - N/A   Overcast
6:55 PM 21.2 °F 11.7 °F 17.6 °F 86% 30.15 in 10.0 mi NNE 8.1 mph - N/A   Overcast
7:15 PM 21.2 °F 10.9 °F 17.6 °F 86% 30.15 in 10.0 mi NNE 9.2 mph - N/A   Overcast
7:35 PM 21.2 °F 11.7 °F 15.8 °F 80% 30.15 in 10.0 mi NNE 8.1 mph - N/A   Overcast
7:55 PM 21.2 °F 11.7 °F 15.8 °F 80% 30.15 in 10.0 mi NNE 8.1 mph - N/A   Overcast
8:15 PM 21.2 °F 11.7 °F 15.8 °F 80% 30.15 in 10.0 mi NNE 8.1 mph - N/A   Overcast
8:35 PM 23.0 °F 14.7 °F 17.6 °F 80% 30.15 in 10.0 mi NNE 6.9 mph - N/A   Overcast
8:55 PM 21.2 °F 11.7 °F 15.8 °F 80% 30.16 in 10.0 mi NNE 8.1 mph - N/A   Overcast
9:15 PM 23.0 °F 13.1 °F 15.8 °F 74% 30.16 in 10.0 mi NNE 9.2 mph - N/A   Overcast
9:35 PM 23.0 °F 14.7 °F 14.0 °F 68% 30.17 in 10.0 mi NNE 6.9 mph - N/A   Overcast
9:55 PM 23.0 °F 13.9 °F 15.8 °F 74% 30.17 in 10.0 mi NNE 8.1 mph - N/A   Overcast
10:15 PM 21.2 °F 12.6 °F 15.8 °F 80% 30.18 in 10.0 mi NNE 6.9 mph - N/A   Overcast
10:35 PM 21.2 °F 13.6 °F 15.8 °F 80% 30.19 in 10.0 mi NNE 5.8 mph - N/A   Overcast
10:55 PM 23.0 °F 17.0 °F 15.8 °F 74% 30.19 in 10.0 mi North 4.6 mph - N/A   Overcast
11:15 PM 23.0 °F 13.1 °F 15.8 °F 74% 30.19 in 10.0 mi North 9.2 mph - N/A   Overcast
11:35 PM 23.0 °F 13.9 °F 15.8 °F 74% 30.20 in 10.0 mi North 8.1 mph - N/A   Overcast
11:55 PM 23.0 °F 14.7 °F 15.8 °F 74% 30.19 in 10.0 mi North 6.9 mph - N/A   Overcast